owner,sensor,date,latitude,longitude,vertical_datum,direction_of_sea_water_velocity,sea_water_speed,upward_sea_water_velocity,qcFlag 
TABS,ioos:station:wmo:42048:1,1995-11-01T00:00:00Z,27.9396,-96.8429,2.0,216.6362188,44.1903666,-99999.0,'11111222,11111222,99999999' 
TABS,ioos:station:wmo:42048:1,1995-11-01T00:30:00Z,27.9396,-96.8429,2.0,219.6187691,47.20232621,-99999.0,'11111222,11111222,99999999' 
TABS,ioos:station:wmo:42048:1,1995-11-01T01:00:00Z,27.9396,-96.8429,2.0,214.3858187,47.48861442,-99999.0,'11111222,11111222,99999999' 
TABS,ioos:station:wmo:42048:1,1995-11-01T01:30:00Z,27.9396,-96.8429,2.0,212.047293,46.05904037,-99999.0,'11111222,11111222,99999999' 
TABS,ioos:station:wmo:42048:1,1995-11-01T02:00:00Z,27.9396,-96.8429,2.0,217.5802822,40.79513819,-99999.0,'11111222,11111222,99999999' 
TABS,ioos:station:wmo:42048:1,1995-11-01T02:30:00Z,27.9396,-96.8429,2.0,224.422902,42.14569966,-99999.0,'11111222,11111222,99999999' 
TABS,ioos:station:wmo:42048:1,1995-11-01T03:00:00Z,27.9396,-96.8429,2.0,210.8902153,38.89762589,-99999.0,'11111222,11111222,99999999' 
TABS,ioos:station:wmo:42048:1,1995-11-01T03:30:00Z,27.9396,-96.8429,2.0,199.9082925,36.76731293,-99999.0,'11111222,11111222,99999999' 
TABS,ioos:station:wmo:42048:1,1995-11-01T04:00:00Z,27.9396,-96.8429,2.0,204.6824381,38.53035427,-99999.0,'11111222,11111222,99999999' 
TABS,ioos:station:wmo:42048:1,1995-11-01T04:30:00Z,27.9396,-96.8429,2.0,209.225357,34.49051464,-99999.0,'11111222,11111222,99999999' 
TABS,ioos:station:wmo:42048:1,1995-11-01T05:00:00Z,27.9396,-96.8429,2.0,211.2654962,34.16127779,-99999.0,'11111222,11111222,99999999' 
TABS,ioos:station:wmo:42048:1,1995-11-01T05:30:00Z,27.9396,-96.8429,2.0,209.4197325,36.09468797,-99999.0,'11111222,11111222,99999999' 
TABS,ioos:station:wmo:42048:1,1995-11-01T06:00:00Z,27.9396,-96.8429,2.0,212.8592619,34.05939665,-99999.0,'11111222,11111222,99999999' 
TABS,ioos:station:wmo:42048:1,1995-11-01T06:30:00Z,27.9396,-96.8429,2.0,210.8796206,32.81114445,-99999.0,'11111222,11111222,99999999' 
TABS,ioos:station:wmo:42048:1,1995-11-01T07:00:00Z,27.9396,-96.8429,2.0,210.0327652,33.0469923,-99999.0,'11111222,11111222,99999999' 
TABS,ioos:station:wmo:42048:1,1995-11-01T07:30:00Z,27.9396,-96.8429,2.0,210.1309754,29.98111739,-99999.0,'11111222,11111222,99999999' 
TABS,ioos:station:wmo:42048:1,1995-11-01T08:00:00Z,27.9396,-96.8429,2.0,206.2666342,24.92355111,-99999.0,'11111222,11111222,99999999' 
TABS,ioos:station:wmo:42048:1,1995-11-01T08:30:00Z,27.9396,-96.8429,2.0,212.4379395,26.65970743,-99999.0,'11111222,11111222,99999999' 
TABS,ioos:station:wmo:42048:1,1995-11-01T09:00:00Z,27.9396,-96.8429,2.0,223.3302618,28.88342951,-99999.0,'11111222,11111222,99999999' 
TABS,ioos:station:wmo:42048:1,1995-11-01T09:30:00Z,27.9396,-96.8429,2.0,229.105512,47.10814898,-99999.0,'11111222,11111222,99999999' 
TABS,ioos:station:wmo:42048:1,1995-11-01T10:00:00Z,27.9396,-96.8429,2.0,226.8942693,44.48719366,-99999.0,'11111222,11111222,99999999' 
TABS,ioos:station:wmo:42048:1,1995-11-01T10:30:00Z,27.9396,-96.8429,2.0,225.9055484,40.25354891,-99999.0,'11111222,11111222,99999999' 
TABS,ioos:station:wmo:42048:1,1995-11-01T11:00:00Z,27.9396,-96.8429,2.0,222.7178048,37.11718335,-99999.0,'11111222,11111222,99999999' 
TABS,ioos:station:wmo:42048:1,1995-11-01T11:30:00Z,27.9396,-96.8429,2.0,222.0068507,36.29579865,-99999.0,'11111222,11111222,99999999' 
TABS,ioos:station:wmo:42048:1,1995-11-01T12:00:00Z,27.9396,-96.8429,2.0,220.7589281,34.23284096,-99999.0,'11111222,11111222,99999999' 
TABS,ioos:station:wmo:42048:1,1995-11-01T12:30:00Z,27.9396,-96.8429,2.0,215.1620606,33.89505126,-99999.0,'11111222,11111222,99999999' 
TABS,ioos:station:wmo:42048:1,1995-11-01T13:00:00Z,27.9396,-96.8429,2.0,211.1310473,33.42350221,-99999.0,'11111222,11111222,99999999' 
TABS,ioos:station:wmo:42048:1,1995-11-01T13:30:00Z,27.9396,-96.8429,2.0,208.2492221,31.79721057,-99999.0,'11111222,11111222,99999999' 
TABS,ioos:station:wmo:42048:1,1995-11-01T14:00:00Z,27.9396,-96.8429,2.0,200.0712685,28.23484549,-99999.0,'11111222,11111222,99999999' 
TABS,ioos:station:wmo:42048:1,1995-11-01T14:30:00Z,27.9396,-96.8429,2.0,196.4661603,27.34137707,-99999.0,'11111222,11111222,99999999' 
TABS,ioos:station:wmo:42048:1,1995-11-01T15:00:00Z,27.9396,-96.8429,2.0,192.9671345,25.22324325,-99999.0,'11111222,11111222,99999999' 
TABS,ioos:station:wmo:42048:1,1995-11-01T15:30:00Z,27.9396,-96.8429,2.0,190.8871199,23.66597769,-99999.0,'11111222,11111222,99999999' 
TABS,ioos:station:wmo:42048:1,1995-11-01T16:00:00Z,27.9396,-96.8429,2.0,192.9066832,23.99628513,-99999.0,'11111222,11111222,99999999' 
TABS,ioos:station:wmo:42048:1,1995-11-01T16:30:00Z,27.9396,-96.8429,2.0,197.9095518,20.35643633,-99999.0,'11111222,11111222,99999999' 
TABS,ioos:station:wmo:42048:1,1995-11-01T17:00:00Z,27.9396,-96.8429,2.0,189.5123049,22.50951799,-99999.0,'11111222,11111222,99999999' 
TABS,ioos:station:wmo:42048:1,1995-11-01T17:30:00Z,27.9396,-96.8429,2.0,190.4711156,19.6980532,-99999.0,'11111222,11111222,99999999' 
TABS,ioos:station:wmo:42048:1,1995-11-01T18:00:00Z,27.9396,-96.8429,2.0,196.8182125,21.63542697,-99999.0,'11111222,11111222,99999999' 
TABS,ioos:station:wmo:42048:1,1995-11-01T18:30:00Z,27.9396,-96.8429,2.0,191.6789586,22.82250863,-99999.0,'11111222,11111222,99999999' 
TABS,ioos:station:wmo:42048:1,1995-11-01T19:00:00Z,27.9396,-96.8429,2.0,189.4668131,19.94159723,-99999.0,'11111222,11111222,99999999' 
TABS,ioos:station:wmo:42048:1,1995-11-01T19:30:00Z,27.9396,-96.8429,2.0,192.9381813,20.63386779,-99999.0,'11111222,11111222,99999999' 
TABS,ioos:station:wmo:42048:1,1995-11-01T20:00:00Z,27.9396,-96.8429,2.0,195.9375118,20.61232641,-99999.0,'11111222,11111222,99999999' 
TABS,ioos:station:wmo:42048:1,1995-11-01T20:30:00Z,27.9396,-96.8429,2.0,195.9496821,17.35825452,-99999.0,'11111222,11111222,99999999' 
TABS,ioos:station:wmo:42048:1,1995-11-01T21:00:00Z,27.9396,-96.8429,2.0,200.3935072,12.39704804,-99999.0,'11111222,11111222,99999999' 
TABS,ioos:station:wmo:42048:1,1995-11-01T21:30:00Z,27.9396,-96.8429,2.0,258.4593161,14.14597116,-99999.0,'11111222,11111222,99999999' 
TABS,ioos:station:wmo:42048:1,1995-11-01T22:00:00Z,27.9396,-96.8429,2.0,255.1033367,16.80476123,-99999.0,'11111222,11111222,99999999' 
TABS,ioos:station:wmo:42048:1,1995-11-01T22:30:00Z,27.9396,-96.8429,2.0,264.9876513,17.05521035,-99999.0,'11111222,11111222,99999999' 
TABS,ioos:station:wmo:42048:1,1995-11-01T23:00:00Z,27.9396,-96.8429,2.0,278.1214557,17.90960078,-99999.0,'11111222,11111222,99999999' 
TABS,ioos:station:wmo:42048:1,1995-11-01T23:30:00Z,27.9396,-96.8429,2.0,263.7289751,13.64161647,-99999.0,'11111222,11111222,99999999' 
TABS,ioos:station:wmo:42048:1,1995-11-02T00:00:00Z,27.9396,-96.8429,2.0,270.0004209,11.47,-99999.0,'11111222,11111222,99999999' 
TABS,ioos:station:wmo:42048:1,1995-11-02T00:30:00Z,27.9396,-96.8429,2.0,277.2230281,9.465104331,-99999.0,'11133222,11111222,99999999' 
TABS,ioos:station:wmo:42048:1,1995-11-02T01:00:00Z,27.9396,-96.8429,2.0,262.2370323,9.920912256,-99999.0,'11133222,11111222,99999999' 
TABS,ioos:station:wmo:42048:1,1995-11-02T01:30:00Z,27.9396,-96.8429,2.0,264.6698143,9.581424737,-99999.0,'11133222,11111222,99999999' 
TABS,ioos:station:wmo:42048:1,1995-11-02T02:00:00Z,27.9396,-96.8429,2.0,272.5081168,6.856566196,-99999.0,'11133222,11111222,99999999' 
TABS,ioos:station:wmo:42048:1,1995-11-02T02:30:00Z,27.9396,-96.8429,2.0,274.7972087,7.175130661,-99999.0,'11133222,11111222,99999999' 
TABS,ioos:station:wmo:42048:1,1995-11-02T03:00:00Z,27.9396,-96.8429,2.0,291.5942375,7.689694402,-99999.0,'11133222,11111222,99999999' 
TABS,ioos:station:wmo:42048:1,1995-11-02T03:30:00Z,27.9396,-96.8429,2.0,292.7785564,5.010788361,-99999.0,'11133222,11111222,99999999' 
TABS,ioos:station:wmo:42048:1,1995-11-02T04:00:00Z,27.9396,-96.8429,2.0,287.7394623,3.905700961,-99999.0,'11133222,11111222,99999999' 
TABS,ioos:station:wmo:42048:1,1995-11-02T04:30:00Z,27.9396,-96.8429,2.0,278.5875692,3.013784996,-99999.0,'11133222,11111222,99999999' 
TABS,ioos:station:wmo:42048:1,1995-11-02T05:00:00Z,27.9396,-96.8429,2.0,310.2101962,2.540314941,-99999.0,'11133222,11111222,99999999' 
TABS,ioos:station:wmo:42048:1,1995-11-02T05:30:00Z,27.9396,-96.8429,2.0,287.8148204,4.380011416,-99999.0,'11133222,11111222,99999999' 
TABS,ioos:station:wmo:42048:1,1995-11-02T06:00:00Z,27.9396,-96.8429,2.0,259.1480284,3.186989175,-99999.0,'11133222,11111222,99999999' 
TABS,ioos:station:wmo:42048:1,1995-11-02T06:30:00Z,27.9396,-96.8429,2.0,242.4573604,4.195473752,-99999.0,'11133222,11111222,99999999' 
TABS,ioos:station:wmo:42048:1,1995-11-02T07:00:00Z,27.9396,-96.8429,2.0,45.00010523,2.955706345,-99999.0,'11133222,11111222,99999999' 
TABS,ioos:station:wmo:42048:1,1995-11-02T07:30:00Z,27.9396,-96.8429,2.0,62.23318069,3.198280788,-99999.0,'11133222,11111222,99999999' 
TABS,ioos:station:wmo:42048:1,1995-11-02T08:00:00Z,27.9396,-96.8429,2.0,65.91558176,6.199717736,-99999.0,'11133222,11111222,99999999' 
TABS,ioos:station:wmo:42048:1,1995-11-02T08:30:00Z,27.9396,-96.8429,2.0,82.45179446,5.709474582,-99999.0,'11133222,11111222,99999999' 
TABS,ioos:station:wmo:42048:1,1995-11-02T09:00:00Z,27.9396,-96.8429,2.0,92.8109494,6.117360542,-99999.0,'11133222,11111222,99999999' 
TABS,ioos:station:wmo:42048:1,1995-11-02T09:30:00Z,27.9396,-96.8429,2.0,107.9248689,5.328648984,-99999.0,'11133222,11111222,99999999' 
TABS,ioos:station:wmo:42048:1,1995-11-02T10:00:00Z,27.9396,-96.8429,2.0,117.5422187,4.195473752,-99999.0,'11133222,11111222,99999999' 
TABS,ioos:station:wmo:42048:1,1995-11-02T10:30:00Z,27.9396,-96.8429,2.0,146.7276032,5.705243203,-99999.0,'11133222,11111222,99999999' 
TABS,ioos:station:wmo:42048:1,1995-11-02T11:00:00Z,27.9396,-96.8429,2.0,157.9935795,6.751925651,-99999.0,'11133222,11111222,99999999' 
TABS,ioos:station:wmo:42048:1,1995-11-02T11:30:00Z,27.9396,-96.8429,2.0,174.2182275,8.834941992,-99999.0,'11133222,11111222,99999999' 
TABS,ioos:station:wmo:42048:1,1995-11-02T12:00:00Z,27.9396,-96.8429,2.0,201.3162722,9.435518004,-99999.0,'11133222,11111222,99999999' 
TABS,ioos:station:wmo:42048:1,1995-11-02T12:30:00Z,27.9396,-96.8429,2.0,207.3286753,10.06320029,-99999.0,'11111222,11111222,99999999' 
TABS,ioos:station:wmo:42048:1,1995-11-02T13:00:00Z,27.9396,-96.8429,2.0,205.9049294,11.26158515,-99999.0,'11111222,11111222,99999999' 
TABS,ioos:station:wmo:42048:1,1995-11-02T13:30:00Z,27.9396,-96.8429,2.0,210.111321,13.95295309,-99999.0,'11111222,11111222,99999999' 
TABS,ioos:station:wmo:42048:1,1995-11-02T14:00:00Z,27.9396,-96.8429,2.0,207.4568532,12.92603961,-99999.0,'11111222,11111222,99999999' 
TABS,ioos:station:wmo:42048:1,1995-11-02T14:30:00Z,27.9396,-96.8429,2.0,207.1689282,12.72393414,-99999.0,'11111222,11111222,99999999' 
TABS,ioos:station:wmo:42048:1,1995-11-02T15:00:00Z,27.9396,-96.8429,2.0,204.6513408,13.92952619,-99999.0,'11111222,11111222,99999999' 
TABS,ioos:station:wmo:42048:1,1995-11-02T15:30:00Z,27.9396,-96.8429,2.0,204.0979537,17.1441681,-99999.0,'11111222,11111222,99999999' 
TABS,ioos:station:wmo:42048:1,1995-11-02T16:00:00Z,27.9396,-96.8429,2.0,207.4450522,17.4657522,-99999.0,'11111222,11111222,99999999' 
TABS,ioos:station:wmo:42048:1,1995-11-02T16:30:00Z,27.9396,-96.8429,2.0,206.7882975,17.1954936,-99999.0,'11111222,11111222,99999999' 
TABS,ioos:station:wmo:42048:1,1995-11-02T17:00:00Z,27.9396,-96.8429,2.0,206.3312379,16.45759703,-99999.0,'11111222,11111222,99999999' 
TABS,ioos:station:wmo:42048:1,1995-11-02T17:30:00Z,27.9396,-96.8429,2.0,203.84207,16.94616476,-99999.0,'11111222,11111222,99999999' 
TABS,ioos:station:wmo:42048:1,1995-11-02T18:00:00Z,27.9396,-96.8429,2.0,208.4792005,17.80456683,-99999.0,'11111222,11111222,99999999' 
TABS,ioos:station:wmo:42048:1,1995-11-02T18:30:00Z,27.9396,-96.8429,2.0,207.1604586,18.92710226,-99999.0,'11111222,11111222,99999999' 
TABS,ioos:station:wmo:42048:1,1995-11-02T19:00:00Z,27.9396,-96.8429,2.0,205.7634931,19.18733958,-99999.0,'11111222,11111222,99999999' 
TABS,ioos:station:wmo:42048:1,1995-11-02T19:30:00Z,27.9396,-96.8429,2.0,208.2044996,18.59828487,-99999.0,'11111222,11111222,99999999' 
TABS,ioos:station:wmo:42048:1,1995-11-02T20:00:00Z,27.9396,-96.8429,2.0,211.7720779,19.8083442,-99999.0,'11111222,11111222,99999999' 
TABS,ioos:station:wmo:42048:1,1995-11-02T20:30:00Z,27.9396,-96.8429,2.0,210.4298801,19.70432694,-99999.0,'11111222,11111222,99999999' 
TABS,ioos:station:wmo:42048:1,1995-11-02T21:00:00Z,27.9396,-96.8429,2.0,214.5682482,19.1754661,-99999.0,'11111222,11111222,99999999' 
TABS,ioos:station:wmo:42048:1,1995-11-02T21:30:00Z,27.9396,-96.8429,2.0,216.7890002,19.90401969,-99999.0,'11111222,11111222,99999999' 
TABS,ioos:station:wmo:42048:1,1995-11-02T22:00:00Z,27.9396,-96.8429,2.0,218.3060678,18.98796724,-99999.0,'11111222,11111222,99999999' 
TABS,ioos:station:wmo:42048:1,1995-11-02T22:30:00Z,27.9396,-96.8429,2.0,228.1201172,17.40649304,-99999.0,'11111222,11111222,99999999' 
TABS,ioos:station:wmo:42048:1,1995-11-02T23:00:00Z,27.9396,-96.8429,2.0,227.4523643,17.18429516,-99999.0,'11111222,11111222,99999999' 
TABS,ioos:station:wmo:42048:1,1995-11-02T23:30:00Z,27.9396,-96.8429,2.0,232.4263094,14.66110501,-99999.0,'11111222,11111222,99999999' 
TABS,ioos:station:wmo:42048:1,1995-11-03T00:00:00Z,27.9396,-96.8429,2.0,232.3206698,14.87148278,-99999.0,'11111222,11111222,99999999' 
TABS,ioos:station:wmo:42048:1,1995-11-03T00:30:00Z,27.9396,-96.8429,2.0,236.5100115,12.6860711,-99999.0,'11111222,11111222,99999999' 
TABS,ioos:station:wmo:42048:1,1995-11-03T01:00:00Z,27.9396,-96.8429,2.0,233.7763587,13.11483511,-99999.0,'11111222,11111222,99999999' 
TABS,ioos:station:wmo:42048:1,1995-11-03T01:30:00Z,27.9396,-96.8429,2.0,228.2257277,11.1829379,-99999.0,'11111222,11111222,99999999' 
TABS,ioos:station:wmo:42048:1,1995-11-03T02:00:00Z,27.9396,-96.8429,2.0,230.6137346,15.03449367,-99999.0,'11111222,11111222,99999999' 
TABS,ioos:station:wmo:42048:1,1995-11-03T02:30:00Z,27.9396,-96.8429,2.0,213.8334121,33.19059053,-99999.0,'11111222,11111222,99999999' 
TABS,ioos:station:wmo:42048:1,1995-11-03T03:00:00Z,27.9396,-96.8429,2.0,210.128887,35.32216585,-99999.0,'11111222,11111222,99999999' 
TABS,ioos:station:wmo:42048:1,1995-11-03T03:30:00Z,27.9396,-96.8429,2.0,211.9088083,37.21339812,-99999.0,'11111222,11111222,99999999' 
TABS,ioos:station:wmo:42048:1,1995-11-03T04:00:00Z,27.9396,-96.8429,2.0,215.6632295,37.04821183,-99999.0,'11111222,11111222,99999999' 
TABS,ioos:station:wmo:42048:1,1995-11-03T04:30:00Z,27.9396,-96.8429,2.0,212.6199261,39.8094524,-99999.0,'11111222,11111222,99999999' 
TABS,ioos:station:wmo:42048:1,1995-11-03T05:00:00Z,27.9396,-96.8429,2.0,214.6021987,41.45245469,-99999.0,'11111222,11111222,99999999' 
TABS,ioos:station:wmo:42048:1,1995-11-03T05:30:00Z,27.9396,-96.8429,2.0,214.1976509,41.6152436,-99999.0,'11111222,11111222,99999999' 
TABS,ioos:station:wmo:42048:1,1995-11-03T06:00:00Z,27.9396,-96.8429,2.0,214.7069785,41.86982207,-99999.0,'11111222,11111222,99999999' 
TABS,ioos:station:wmo:42048:1,1995-11-03T06:30:00Z,27.9396,-96.8429,2.0,215.3249037,37.61566961,-99999.0,'11111222,11111222,99999999' 
TABS,ioos:station:wmo:42048:1,1995-11-03T07:00:00Z,27.9396,-96.8429,2.0,209.392542,39.16098569,-99999.0,'11111222,11111222,99999999' 
TABS,ioos:station:wmo:42048:1,1995-11-03T07:30:00Z,27.9396,-96.8429,2.0,216.8323756,40.01800845,-99999.0,'11111222,11111222,99999999' 
TABS,ioos:station:wmo:42048:1,1995-11-03T08:00:00Z,27.9396,-96.8429,2.0,212.3963022,40.05401353,-99999.0,'11111222,11111222,99999999' 
TABS,ioos:station:wmo:42048:1,1995-11-03T08:30:00Z,27.9396,-96.8429,2.0,207.7732626,40.92467471,-99999.0,'11111222,11111222,99999999' 
TABS,ioos:station:wmo:42048:1,1995-11-03T09:00:00Z,27.9396,-96.8429,2.0,210.0948951,42.19864571,-99999.0,'11111222,11111222,99999999' 
TABS,ioos:station:wmo:42048:1,1995-11-03T09:30:00Z,27.9396,-96.8429,2.0,215.621901,39.4033425,-99999.0,'11111222,11111222,99999999' 
TABS,ioos:station:wmo:42048:1,1995-11-03T10:00:00Z,27.9396,-96.8429,2.0,218.4727234,41.67831331,-99999.0,'11111222,11111222,99999999' 
TABS,ioos:station:wmo:42048:1,1995-11-03T10:30:00Z,27.9396,-96.8429,2.0,215.7881889,44.08385192,-99999.0,'11111222,11111222,99999999' 
TABS,ioos:station:wmo:42048:1,1995-11-03T11:00:00Z,27.9396,-96.8429,2.0,215.4467392,41.88291418,-99999.0,'11111222,11111222,99999999' 
TABS,ioos:station:wmo:42048:1,1995-11-03T11:30:00Z,27.9396,-96.8429,2.0,220.3742464,45.77160037,-99999.0,'11111222,11111222,99999999' 
TABS,ioos:station:wmo:42048:1,1995-11-03T12:00:00Z,27.9396,-96.8429,2.0,219.7143222,49.20463494,-99999.0,'11111222,11111222,99999999' 
TABS,ioos:station:wmo:42048:1,1995-11-03T12:30:00Z,27.9396,-96.8429,2.0,215.2763285,46.17985383,-99999.0,'11111222,11111222,99999999' 
TABS,ioos:station:wmo:42048:1,1995-11-03T13:00:00Z,27.9396,-96.8429,2.0,220.5667708,49.03605408,-99999.0,'11111222,11111222,99999999' 
TABS,ioos:station:wmo:42048:1,1995-11-03T13:30:00Z,27.9396,-96.8429,2.0,216.0214098,44.58488533,-99999.0,'11111222,11111222,99999999' 
TABS,ioos:station:wmo:42048:1,1995-11-03T14:00:00Z,27.9396,-96.8429,2.0,216.2866033,46.58441156,-99999.0,'11111222,11111222,99999999' 
TABS,ioos:station:wmo:42048:1,1995-11-03T14:30:00Z,27.9396,-96.8429,2.0,213.9364855,48.30928793,-99999.0,'11111222,11111222,99999999' 
TABS,ioos:station:wmo:42048:1,1995-11-03T15:00:00Z,27.9396,-96.8429,2.0,216.0241093,42.55863367,-99999.0,'11111222,11111222,99999999' 
TABS,ioos:station:wmo:42048:1,1995-11-03T15:30:00Z,27.9396,-96.8429,2.0,214.4929652,50.25522858,-99999.0,'11111222,11111222,99999999' 
TABS,ioos:station:wmo:42048:1,1995-11-03T16:00:00Z,27.9396,-96.8429,2.0,223.6889998,46.37005284,-99999.0,'11111222,11111222,99999999' 
TABS,ioos:station:wmo:42048:1,1995-11-03T16:30:00Z,27.9396,-96.8429,2.0,218.8812244,48.42984617,-99999.0,'11111222,11111222,99999999' 
TABS,ioos:station:wmo:42048:1,1995-11-03T17:00:00Z,27.9396,-96.8429,2.0,215.9870708,48.43374547,-99999.0,'11111222,11111222,99999999' 
TABS,ioos:station:wmo:42048:1,1995-11-03T17:30:00Z,27.9396,-96.8429,2.0,222.1865394,38.6121354,-99999.0,'11111222,11111222,99999999' 
TABS,ioos:station:wmo:42048:1,1995-11-03T18:00:00Z,27.9396,-96.8429,2.0,211.7264456,48.16793332,-99999.0,'11111222,11111222,99999999' 
TABS,ioos:station:wmo:42048:1,1995-11-03T18:30:00Z,27.9396,-96.8429,2.0,215.8481166,50.37200512,-99999.0,'11111222,11111222,99999999' 
TABS,ioos:station:wmo:42048:1,1995-11-03T19:00:00Z,27.9396,-96.8429,2.0,224.079808,39.19998087,-99999.0,'11111222,11111222,99999999' 
TABS,ioos:station:wmo:42048:1,1995-11-03T19:30:00Z,27.9396,-96.8429,2.0,211.18611,45.45947316,-99999.0,'11111222,11111222,99999999' 
TABS,ioos:station:wmo:42048:1,1995-11-03T20:00:00Z,27.9396,-96.8429,2.0,217.96041,40.44732995,-99999.0,'11111222,11111222,99999999' 
TABS,ioos:station:wmo:42048:1,1995-11-03T20:30:00Z,27.9396,-96.8429,2.0,218.2233506,40.21122356,-99999.0,'11111222,11111222,99999999' 
TABS,ioos:station:wmo:42048:1,1995-11-03T21:00:00Z,27.9396,-96.8429,2.0,217.8577397,41.51817433,-99999.0,'11111222,11111222,99999999' 
TABS,ioos:station:wmo:42048:1,1995-11-03T21:30:00Z,27.9396,-96.8429,2.0,216.7808179,41.30204959,-99999.0,'11111222,11111222,99999999' 
TABS,ioos:station:wmo:42048:1,1995-11-03T22:00:00Z,27.9396,-96.8429,2.0,210.2441536,44.67032684,-99999.0,'11111222,11111222,99999999' 
TABS,ioos:station:wmo:42048:1,1995-11-03T22:30:00Z,27.9396,-96.8429,2.0,217.8646157,44.91677304,-99999.0,'11111222,11111222,99999999' 
TABS,ioos:station:wmo:42048:1,1995-11-03T23:00:00Z,27.9396,-96.8429,2.0,218.5317835,39.2325082,-99999.0,'11111222,11111222,99999999' 
TABS,ioos:station:wmo:42048:1,1995-11-03T23:30:00Z,27.9396,-96.8429,2.0,214.3151235,45.99570632,-99999.0,'11111222,11111222,99999999' 
TABS,ioos:station:wmo:42048:1,1995-11-04T00:00:00Z,27.9396,-96.8429,2.0,217.3036506,39.33712877,-99999.0,'11111222,11111222,99999999' 
TABS,ioos:station:wmo:42048:1,1995-11-04T00:30:00Z,27.9396,-96.8429,2.0,220.5116742,41.74831733,-99999.0,'11111222,11111222,99999999' 
TABS,ioos:station:wmo:42048:1,1995-11-04T01:00:00Z,27.9396,-96.8429,2.0,214.7155987,43.68686874,-99999.0,'11111222,11111222,99999999' 
TABS,ioos:station:wmo:42048:1,1995-11-04T01:30:00Z,27.9396,-96.8429,2.0,214.2091758,45.58713525,-99999.0,'11111222,11111222,99999999' 
TABS,ioos:station:wmo:42048:1,1995-11-04T02:00:00Z,27.9396,-96.8429,2.0,226.4031881,34.35448297,-99999.0,'11111222,11111222,99999999' 
TABS,ioos:station:wmo:42048:1,1995-11-04T02:30:00Z,27.9396,-96.8429,2.0,216.7100487,42.3741643,-99999.0,'11111222,11111222,99999999' 
TABS,ioos:station:wmo:42048:1,1995-11-04T03:00:00Z,27.9396,-96.8429,2.0,217.9126994,40.97879086,-99999.0,'11111222,11111222,99999999' 
TABS,ioos:station:wmo:42048:1,1995-11-04T03:30:00Z,27.9396,-96.8429,2.0,217.6994691,37.28391074,-99999.0,'11111222,11111222,99999999' 
TABS,ioos:station:wmo:42048:1,1995-11-04T04:00:00Z,27.9396,-96.8429,2.0,212.6960463,38.06093141,-99999.0,'11111222,11111222,99999999' 
TABS,ioos:station:wmo:42048:1,1995-11-04T04:30:00Z,27.9396,-96.8429,2.0,221.9194327,37.24054914,-99999.0,'11111222,11111222,99999999' 
TABS,ioos:station:wmo:42048:1,1995-11-04T05:00:00Z,27.9396,-96.8429,2.0,223.798984,35.09434427,-99999.0,'11111222,11111222,99999999' 
TABS,ioos:station:wmo:42048:1,1995-11-04T05:30:00Z,27.9396,-96.8429,2.0,214.1290893,37.98143889,-99999.0,'11111222,11111222,99999999' 
TABS,ioos:station:wmo:42048:1,1995-11-04T06:00:00Z,27.9396,-96.8429,2.0,216.6832359,43.65623094,-99999.0,'11111222,11111222,99999999' 
TABS,ioos:station:wmo:42048:1,1995-11-04T06:30:00Z,27.9396,-96.8429,2.0,216.1748771,41.89707985,-99999.0,'11111222,11111222,99999999' 
TABS,ioos:station:wmo:42048:1,1995-11-04T07:00:00Z,27.9396,-96.8429,2.0,214.9502477,45.2633947,-99999.0,'11111222,11111222,99999999' 
TABS,ioos:station:wmo:42048:1,1995-11-04T07:30:00Z,27.9396,-96.8429,2.0,214.5240679,42.85790709,-99999.0,'11111222,11111222,99999999' 
TABS,ioos:station:wmo:42048:1,1995-11-04T08:00:00Z,27.9396,-96.8429,2.0,217.9880141,50.1055456,-99999.0,'11111222,11111222,99999999' 
TABS,ioos:station:wmo:42048:1,1995-11-04T08:30:00Z,27.9396,-96.8429,2.0,216.6050451,45.48048483,-99999.0,'11111222,11111222,99999999' 
TABS,ioos:station:wmo:42048:1,1995-11-04T09:00:00Z,27.9396,-96.8429,2.0,222.5117497,43.65549679,-99999.0,'11111222,11111222,99999999' 
TABS,ioos:station:wmo:42048:1,1995-11-04T09:30:00Z,27.9396,-96.8429,2.0,214.623643,50.88108686,-99999.0,'11111222,11111222,99999999' 
TABS,ioos:station:wmo:42048:1,1995-11-04T10:00:00Z,27.9396,-96.8429,2.0,213.9982112,54.09792048,-99999.0,'11111222,11111222,99999999' 
TABS,ioos:station:wmo:42048:1,1995-11-04T10:30:00Z,27.9396,-96.8429,2.0,219.5700393,46.7799487,-99999.0,'11111222,11111222,99999999' 
TABS,ioos:station:wmo:42048:1,1995-11-04T11:00:00Z,27.9396,-96.8429,2.0,222.1950836,47.25598057,-99999.0,'11111222,11111222,99999999' 
TABS,ioos:station:wmo:42048:1,1995-11-04T11:30:00Z,27.9396,-96.8429,2.0,215.4857119,59.29329473,-99999.0,'11111222,11111222,99999999' 
TABS,ioos:station:wmo:42048:1,1995-11-04T12:00:00Z,27.9396,-96.8429,2.0,222.1534402,48.84355126,-99999.0,'11111222,11111222,99999999' 
TABS,ioos:station:wmo:42048:1,1995-11-04T12:30:00Z,27.9396,-96.8429,2.0,211.530807,56.9831984,-99999.0,'11111222,11111222,99999999' 
TABS,ioos:station:wmo:42048:1,1995-11-04T13:00:00Z,27.9396,-96.8429,2.0,216.1695246,53.52599555,-99999.0,'11111222,11111222,99999999' 
TABS,ioos:station:wmo:42048:1,1995-11-04T13:30:00Z,27.9396,-96.8429,2.0,223.0819815,47.33195327,-99999.0,'11111222,11111222,99999999' 
TABS,ioos:station:wmo:42048:1,1995-11-04T14:00:00Z,27.9396,-96.8429,2.0,227.8962268,47.99608838,-99999.0,'11111222,11111222,99999999' 
TABS,ioos:station:wmo:42048:1,1995-11-04T14:30:00Z,27.9396,-96.8429,2.0,220.0795977,51.61097751,-99999.0,'11111222,11111222,99999999' 
TABS,ioos:station:wmo:42048:1,1995-11-04T15:00:00Z,27.9396,-96.8429,2.0,222.0515399,34.92072451,-99999.0,'11111222,11111222,99999999' 
TABS,ioos:station:wmo:42048:1,1995-11-04T15:30:00Z,27.9396,-96.8429,2.0,226.1029708,49.20961288,-99999.0,'11111222,11111222,99999999' 
TABS,ioos:station:wmo:42048:1,1995-11-04T16:00:00Z,27.9396,-96.8429,2.0,227.6160251,34.69854464,-99999.0,'11111222,11111222,99999999' 